map of EKO home
EKO - Airport
Location
City:  Elko, Nevada, United States
Name:Elko Regional
ICAO:KEKO
IATA:EKO
FAA LID:EKO

Details
Type:Airport (Part 139 Class I)
Use:Public/Civil
Latitude:40°49'30"N (40.825000)
Longitude:115°47'29"W (-115.791332)
Datum:WGS 1984
Elevation:5139 ft (1566 m)
Variation:12.61°E (WMM2015 magnetic declination)
-0.11° annual change
Runways:2
Longest:7454 × 150 ft (2272 × 45.5 m), paved

Time
Time Zone:UTC-8 (DST-7)
Local Time:

Weather
METAR:KEKO 231656Z AUTO 24004KT 10SM CLR 12/05 A3010 RMK AO2 SLP176 T01220050
TAF:KEKO 231720Z 2318/2418 VRB06KT P6SM SCT100

Related Locations
Nearby:
Farthest:ZSE: 10993 mi / 17691 km
St-Pierre (St-Pierre de la Réunion) [Pierrefonds], RE

Find:

   beyond  
but within

Other Information
Maps:
Delays:
NOTAMs:
Links:
Sources:

  
  • flag of United States
  • flag of Nevada
  

Airport Diagram

Airport diagram for EKO

Airport diagram PDF

Sectional Chart

Flight Planning
at skyvector.com

Satellite Image

Google Maps Satellite view

 

Copyright © 2004-2018 Karl L. Swartz. All rights reserved.
The Great Circle Mapper name and logo are trademarks of the Great Circle Mapper.
All other trademarks mentioned herein belong to their respective owners.
Please see credits for attibutions and further copyright information.

  Follow gcmap on Facebook Follow gcmap on Twitter Follow gcmap on Google+ GCmap on LinkedIn

hCard Microformat

Geo Microformat